Previsão horária em Jurbarkas

Hoje, 19 Junho, Sábado

Tempo Temperatura Precipitação Vento Pressão Humidade
00:00 +19°C° 0 mm 3 m/s 762 mmHg 85%
01:00 +18°C° 0 mm 2 m/s 762 mmHg 86%
02:00 +17°C° 0 mm 2 m/s 762 mmHg 88%
03:00 +17°C° 0 mm 2 m/s 762 mmHg 89%
04:00 +17°C° 0 mm 2 m/s 762 mmHg 89%
05:00 +17°C° 0 mm 2 m/s 762 mmHg 90%
06:00 +19°C° 0 mm 2 m/s 762 mmHg 84%
07:00 +21°C° 0 mm 2 m/s 762 mmHg 78%
08:00 +24°C° 0 mm 2 m/s 762 mmHg 73%
09:00 +25°C° 0 mm 3 m/s 761 mmHg 68%
10:00 +26°C° 0 mm 3 m/s 761 mmHg 64%
11:00 +27°C° 0 mm 3 m/s 761 mmHg 59%
12:00 +28°C° 0 mm 3 m/s 761 mmHg 57%
13:00 +29°C° 0 mm 3 m/s 761 mmHg 55%
14:00 +29°C° 0 mm 3 m/s 760 mmHg 53%
15:00 +29°C° 0 mm 3 m/s 760 mmHg 55%
16:00 +29°C° 0 mm 3 m/s 760 mmHg 57%
17:00 +29°C° 0 mm 3 m/s 760 mmHg 59%
18:00 +28°C° 0 mm 2 m/s 759 mmHg 65%
19:00 +27°C° 0 mm 2 m/s 759 mmHg 71%
20:00 +25°C° 0 mm 1 m/s 759 mmHg 77%
21:00 +24°C° 0 mm 2 m/s 759 mmHg 79%
22:00 +23°C° 0 mm 2 m/s 759 mmHg 82%
23:00 +21°C° 0 mm 3 m/s 759 mmHg 85%

Amanhã, 20 Junho, Domingo

Tempo Temperatura Precipitação Vento Pressão Humidade
00:00 +20°C° 0 mm 3 m/s 760 mmHg 86%
01:00 +20°C° 0 mm 3 m/s 760 mmHg 87%
02:00 +19°C° 0 mm 3 m/s 760 mmHg 88%
03:00 +19°C° 0 mm 3 m/s 760 mmHg 88%
04:00 +19°C° 0 mm 2 m/s 759 mmHg 88%
05:00 +19°C° 0 mm 2 m/s 759 mmHg 89%
06:00 +20°C° 0 mm 3 m/s 759 mmHg 84%
07:00 +22°C° 0 mm 3 m/s 759 mmHg 79%
08:00 +25°C° 0 mm 3 m/s 759 mmHg 74%
09:00 +26°C° 0 mm 4 m/s 759 mmHg 70%
10:00 +27°C° 0 mm 4 m/s 759 mmHg 66%
11:00 +28°C° 0 mm 4 m/s 759 mmHg 62%
12:00 +29°C° 0 mm 4 m/s 759 mmHg 60%
13:00 +29°C° 0 mm 4 m/s 759 mmHg 58%
14:00 +30°C° 0 mm 3 m/s 758 mmHg 57%
15:00 +30°C° 0.1 mm 4 m/s 758 mmHg 60%
16:00 +29°C° 0.1 mm 4 m/s 758 mmHg 64%
17:00 +29°C° 0.1 mm 4 m/s 757 mmHg 67%
18:00 +28°C° 0.5 mm 3 m/s 757 mmHg 73%
19:00 +26°C° 0.5 mm 3 m/s 757 mmHg 79%
20:00 +25°C° 0.5 mm 2 m/s 757 mmHg 85%
21:00 +24°C° 0.2 mm 2 m/s 757 mmHg 88%
22:00 +22°C° 0.2 mm 3 m/s 757 mmHg 90%
23:00 +21°C° 0.2 mm 3 m/s 757 mmHg 93%

Depois de amanhã, 21 Junho, Segunda-feira

Tempo Temperatura Precipitação Vento Pressão Humidade
00:00 +21°C° 0 mm 3 m/s 757 mmHg 93%
01:00 +20°C° 0 mm 3 m/s 757 mmHg 94%
02:00 +20°C° 0 mm 3 m/s 757 mmHg 95%
03:00 +20°C° 0 mm 2 m/s 757 mmHg 95%
04:00 +20°C° 0 mm 2 m/s 757 mmHg 95%
05:00 +20°C° 0 mm 2 m/s 757 mmHg 95%
06:00 +21°C° 0 mm 3 m/s 757 mmHg 90%
07:00 +22°C° 0 mm 3 m/s 757 mmHg 85%
08:00 +25°C° 0 mm 4 m/s 757 mmHg 80%
09:00 +26°C° 0 mm 4 m/s 756 mmHg 73%
10:00 +27°C° 0 mm 5 m/s 756 mmHg 66%
11:00 +29°C° 0 mm 5 m/s 756 mmHg 60%
12:00 +29°C° 0 mm 5 m/s 756 mmHg 57%
13:00 +30°C° 0 mm 5 m/s 756 mmHg 54%
14:00 +30°C° 0 mm 4 m/s 756 mmHg 51%
15:00 +30°C° 0.1 mm 4 m/s 755 mmHg 54%
16:00 +30°C° 0.1 mm 4 m/s 755 mmHg 57%
17:00 +30°C° 0.1 mm 4 m/s 755 mmHg 60%
18:00 +28°C° 0.2 mm 4 m/s 755 mmHg 67%
19:00 +26°C° 0.2 mm 3 m/s 755 mmHg 74%
20:00 +25°C° 0.2 mm 3 m/s 755 mmHg 81%
21:00 +24°C° 0 mm 3 m/s 755 mmHg 84%
22:00 +22°C° 0 mm 3 m/s 755 mmHg 88%
23:00 +21°C° 0 mm 2 m/s 755 mmHg 92%

22 Junho, Terça-feira

Tempo Temperatura Precipitação Vento Pressão Humidade
00:00 +20°C° 0 mm 2 m/s 755 mmHg 93%
01:00 +20°C° 0 mm 2 m/s 755 mmHg 94%
02:00 +20°C° 0 mm 2 m/s 755 mmHg 95%
03:00 +20°C° 0 mm 2 m/s 755 mmHg 94%
04:00 +20°C° 0 mm 2 m/s 755 mmHg 94%
05:00 +20°C° 0 mm 2 m/s 755 mmHg 94%
06:00 +21°C° 0 mm 2 m/s 755 mmHg 88%
07:00 +24°C° 0 mm 3 m/s 755 mmHg 83%
08:00 +26°C° 0 mm 3 m/s 755 mmHg 78%
09:00 +27°C° 0.6 mm 3 m/s 755 mmHg 75%
10:00 +28°C° 0.6 mm 4 m/s 755 mmHg 72%
11:00 +29°C° 0.6 mm 4 m/s 756 mmHg 69%
12:00 +29°C° 0.4 mm 4 m/s 756 mmHg 67%
13:00 +30°C° 0.4 mm 4 m/s 756 mmHg 65%
14:00 +30°C° 0.4 mm 3 m/s 756 mmHg 62%
15:00 +30°C° 0.4 mm 3 m/s 756 mmHg 65%
16:00 +30°C° 0.4 mm 2 m/s 756 mmHg 67%
17:00 +30°C° 0.4 mm 2 m/s 756 mmHg 69%
18:00 +28°C° 0.3 mm 1 m/s 756 mmHg 74%
19:00 +27°C° 0.3 mm 1 m/s 756 mmHg 78%
20:00 +26°C° 0.3 mm 1 m/s 756 mmHg 83%
21:00 +25°C° 0.5 mm 1 m/s 757 mmHg 85%
22:00 +24°C° 0.5 mm 1 m/s 757 mmHg 88%
23:00 +23°C° 0.5 mm 1 m/s 757 mmHg 90%

23 Junho, Quarta-feira

Tempo Temperatura Precipitação Vento Pressão Humidade
00:00 +22°C° 0.3 mm 1 m/s 757 mmHg 91%
01:00 +22°C° 0.3 mm 1 m/s 757 mmHg 92%
02:00 +21°C° 0.3 mm 1 m/s 757 mmHg 92%
03:00 +21°C° 0.1 mm 1 m/s 757 mmHg 93%
04:00 +21°C° 0.1 mm 1 m/s 758 mmHg 93%
05:00 +21°C° 0.1 mm 1 m/s 758 mmHg 93%
06:00 +23°C° 0 mm 1 m/s 758 mmHg 90%
07:00 +24°C° 0 mm 1 m/s 758 mmHg 86%
08:00 +25°C° 0 mm 1 m/s 758 mmHg 82%
09:00 +26°C° 0.3 mm 1 m/s 758 mmHg 78%
10:00 +28°C° 0.3 mm 1 m/s 758 mmHg 74%
11:00 +29°C° 0.3 mm 2 m/s 758 mmHg 70%
12:00 +30°C° 0.4 mm 2 m/s 758 mmHg 65%
13:00 +30°C° 0.4 mm 1 m/s 758 mmHg 61%
14:00 +31°C° 0.4 mm 1 m/s 758 mmHg 56%
15:00 +31°C° 0.1 mm 1 m/s 758 mmHg 57%
16:00 +31°C° 0.1 mm 1 m/s 758 mmHg 58%
17:00 +31°C° 0.1 mm 1 m/s 758 mmHg 59%
18:00 +29°C° 0.9 mm 1 m/s 758 mmHg 67%
19:00 +28°C° 0.9 mm 1 m/s 758 mmHg 75%
20:00 +26°C° 0.9 mm 2 m/s 758 mmHg 83%
21:00 +25°C° 0.8 mm 2 m/s 758 mmHg 86%
22:00 +24°C° 0.8 mm 2 m/s 758 mmHg 88%
23:00 +23°C° 0.8 mm 2 m/s 758 mmHg 91%

24 Junho, Quinta-feira

Tempo Temperatura Precipitação Vento Pressão Humidade
00:00 +23°C° 0.3 mm 2 m/s 758 mmHg 92%
01:00 +23°C° 0.3 mm 1 m/s 758 mmHg 92%
02:00 +22°C° 0.3 mm 1 m/s 758 mmHg 93%
03:00 +22°C° 0.3 mm 1 m/s 758 mmHg 93%
04:00 +22°C° 0.3 mm 1 m/s 758 mmHg 93%
05:00 +22°C° 0.3 mm 1 m/s 758 mmHg 93%
06:00 +24°C° 0 mm 2 m/s 758 mmHg 89%
07:00 +25°C° 0 mm 2 m/s 758 mmHg 85%
08:00 +27°C° 0 mm 2 m/s 758 mmHg 82%
09:00 +28°C° 0.8 mm 2 m/s 758 mmHg 78%
10:00 +29°C° 0.8 mm 2 m/s 758 mmHg 75%
11:00 +30°C° 0.8 mm 3 m/s 758 mmHg 72%
12:00 +31°C° 0.1 mm 3 m/s 758 mmHg 66%
13:00 +31°C° 0.1 mm 2 m/s 758 mmHg 59%
14:00 +32°C° 0.1 mm 2 m/s 757 mmHg 53%
15:00 +31°C° 1.1 mm 3 m/s 757 mmHg 59%
16:00 +30°C° 1.1 mm 3 m/s 757 mmHg 65%
17:00 +29°C° 1.1 mm 4 m/s 757 mmHg 71%
18:00 +26°C° 2.3 mm 4 m/s 756 mmHg 79%
19:00 +23°C° 2.3 mm 4 m/s 756 mmHg 87%
20:00 +21°C° 2.3 mm 4 m/s 756 mmHg 96%
21:00 +21°C° 0.7 mm 3 m/s 756 mmHg 96%
22:00 +20°C° 0.7 mm 2 m/s 757 mmHg 97%
23:00 +21°C° 0.7 mm 1 m/s 757 mmHg 97%
Mostrar mais

Necessitamos do seu Consentimento

A Meteoprog e os seus Fornecedores de Serviços podem armazenar e aceder a dados pessoais como cookies, identificadores do dispositivo ou outras tecnologias semelhantes existentes no seu dispositivo e processar estes dados para personalizar conteúdos e anúncios, assim como funcionalidades nas redes sociais e análise de tráfego.

  • Armazenar e/ou aceder a informações no seu dispositivo

    Os cookies, identificadores do dispositivo ou outras informações podem ser armazenados ou acedidos no seu dispositivo, para os fins acima indicados.

  • Anúncios e conteúdos personalizados, medição de anúncios e conteúdos, dados sobre o público-alvo e desenvolvimento de produtos

    Os anúncios e os conteúdos podem ser personalizados com base num perfil. Podem ser adicionados dados adicionais para uma maior personalização dos anúncios e dos conteúdos. A eficácia dos anúncios e dos conteúdos pode ser medida. Podem ser obtidas informações sobre o público que visualizou os anúncios e os conteúdos. Estes dados podem ser usados para desenvolver ou melhorar sistemas, softwares ou a experiência do utilizador.

Ao clicar em "Eu concordo”, permitirá o uso de cookies, identificadores do dispositivo e web beacons mencionados ou outras tecnologias semelhantes. As configurações do navegador do seu dispositivo podem ser alteradas.

Para certos fins, podem ser invocados interesses legítimos ao invés de consentimento. Pode ler mais informação sobre este assunto na nossa Política de Privacidade e Cookies.